Back to catalog

DMSP 5D-2 F13 DEB

AliveSSO
NORAD 40473·DEBRIS·🇺🇸 United States

Launched Mar 24, 1995 from Vandenberg Space Force Base

Loading…

Next Passes (next 24 hours)

TLE

FreshSource: Space-Track

Epoch: Sep 14, 2026, 09:37 UTC

1 40473U 95015BR  26257.40128677  .00001537  00000-0  10017-2 0  9992
2 40473  98.7036  95.8737 0122090 124.8763 236.3952 14.00183886585048

Track DMSP 5D-2 F13 DEB in real time with AllMySat

Download on the App Store